Weather History for KCDA - May, 2014

Change the Weather History Date:

Monday, May 26, 2014

  Actual Average (K1V4) Record (K1V4)
Temperature  
Mean Temperature 59 °F 60 °F  
Max Temperature 67 °F 72 °F 89 °F (2010)
Min Temperature 51 °F 48 °F 28 °F (1956)
Degree Days  
Heating Degree Days 6    
Cooling Degree Days 0 1  
Month to date cooling degree days 9  
Year to date cooling degree days 10  
Growing Degree Days 9 (Base 50)    
Moisture  
Dew Point 54 °F    
Average Humidity 81    
Maximum Humidity 91    
Minimum Humidity 64    
Precipitation  
Precipitation 0.00 in 0.11 in 4.55 in (2011)
Month to date precipitation 2.78  
Year to date precipitation 12.83  
Sea Level Pressure  
Sea Level Pressure 29.88 in    
Wind  
Wind Speed 2 mph (SW)    
Max Wind Speed 15 mph    
Max Gust Speed 24 mph    
Visibility 9 miles    
Events Rain    
T = Trace of Precipitation, MM = Missing Value Source: NWS Daily Summary

Daily Weather History Graph

Daily Weather History Graph

Search for Another Location

Airport or City:

Trip Planner

Search our weather history database for the weather conditions in past years. The results will help you decide how hot, cold, wet, or windy it might be!

Date:

Astronomy

May. 26, 2014 Rise Set
Actual Time 5:10 AM EDT 8:20 PM EDT
Civil Twilight 4:34 AM EDT 8:56 PM EDT
Nautical Twilight 3:49 AM EDT 9:41 PM EDT
Astronomical Twilight 2:54 AM EDT 10:37 PM EDT
Moon 3:56 AM EDT (5/26) 6:15 PM EDT (5/26)
Length of Visible Light 16h 21m
Length of Day
15h 10m
Waning Crescent, 5% of the Moon is Illuminated
May 26
Waning Crescent
May 28
New
Jun 5
First Quarter
Jun 13
Full
Jun 19
Last Quarter

Hourly Weather History & Observations

Time (EDT) Temp. Dew Point Humidity Pressure Visibility Wind Dir Wind Speed Gust Speed Precip Events Conditions
12:15 AM 57.0 °F 50.5 °F 79% 29.97 in 10.0 mi East 4.6 mph - N/A Rain Light Rain
12:35 AM 55.0 °F 50.5 °F 85% 29.96 in 10.0 mi West 3.5 mph - N/A   Overcast
12:55 AM 55.0 °F 50.9 °F 86% 29.94 in 10.0 mi Calm Calm - N/A   Overcast
1:15 AM 55.0 °F 49.8 °F 83% 29.94 in 10.0 mi South 4.6 mph - N/A   Mostly Cloudy
1:35 AM 54.9 °F 49.3 °F 81% 29.93 in 10.0 mi Calm Calm - N/A   Scattered Clouds
1:55 AM 54.0 °F 49.3 °F 84% 29.93 in 10.0 mi Calm Calm - N/A   Scattered Clouds
2:15 AM 55.8 °F 50.2 °F 82% 29.93 in 10.0 mi Calm Calm - N/A   Clear
2:35 AM 54.7 °F 50.0 °F 84% 29.93 in 10.0 mi Calm Calm - N/A   Clear
2:55 AM 52.7 °F 49.6 °F 89% 29.92 in 7.0 mi Calm Calm - N/A   Clear
3:15 AM 52.7 °F 49.8 °F 90% 29.92 in 10.0 mi Calm Calm - N/A   Clear
3:35 AM 51.6 °F 48.6 °F 89% 29.92 in 7.0 mi Calm Calm - N/A   Clear
3:55 AM 52.9 °F 50.0 °F 90% 29.90 in 10.0 mi SSE 3.5 mph - N/A   Scattered Clouds
4:15 AM 52.7 °F 50.0 °F 91% 29.91 in 7.0 mi Calm Calm - N/A   Mostly Cloudy
4:35 AM 53.6 °F 50.9 °F 91% 29.91 in 10.0 mi Calm Calm - N/A Rain Light Rain
4:55 AM 53.6 °F 50.7 °F 90% 29.91 in 10.0 mi Calm Calm - N/A   Overcast
5:15 AM 53.6 °F 50.5 °F 89% 29.91 in 7.0 mi SE 3.5 mph - N/A Rain Light Rain
5:35 AM 53.6 °F 50.5 °F 89% 29.91 in 0.8 mi Calm Calm - N/A   Overcast
5:55 AM 54.0 °F 50.5 °F 88% 29.91 in 7.0 mi Calm Calm - N/A   Overcast
6:15 AM 55.2 °F 51.3 °F 87% 29.91 in 10.0 mi South 5.8 mph - N/A   Light Drizzle
6:35 AM 56.5 °F 51.3 °F 83% 29.91 in 10.0 mi South 4.6 mph - N/A   Overcast
6:55 AM 57.4 °F 51.3 °F 80% 29.91 in 10.0 mi WSW 5.8 mph - N/A   Overcast
7:15 AM 57.2 °F 51.4 °F 81% 29.92 in 10.0 mi WSW 3.5 mph - N/A   Overcast
7:35 AM 57.2 °F 51.8 °F 82% 29.92 in 10.0 mi Calm Calm - N/A Rain Rain
7:55 AM 58.1 °F 52.0 °F 80% 29.92 in 10.0 mi Calm Calm - N/A   Overcast
8:15 AM 57.7 °F 52.5 °F 83% 29.92 in 10.0 mi East 3.5 mph - N/A   Overcast
8:35 AM 56.8 °F 52.7 °F 86% 29.91 in 10.0 mi NNE 3.5 mph - N/A   Overcast
8:55 AM 57.4 °F 52.9 °F 85% 29.91 in 10.0 mi Calm Calm - N/A   Overcast
9:15 AM 58.5 °F 53.2 °F 83% 29.90 in 10.0 mi ESE 5.8 mph - N/A   Overcast
9:35 AM 59.4 °F 54.0 °F 82% 29.90 in 10.0 mi SSE 3.5 mph - N/A   Overcast
9:55 AM 60.8 °F 53.6 °F 77% 29.90 in 10.0 mi Calm Calm - N/A   Overcast
10:15 AM 61.0 °F 53.2 °F 76% 29.90 in 10.0 mi Calm Calm - N/A   Overcast
10:35 AM 60.3 °F 54.9 °F 82% 29.90 in 10.0 mi ESE 3.5 mph - N/A   Overcast
11:15 AM 59.5 °F 55.4 °F 86% 29.90 in 10.0 mi Calm Calm - N/A Rain Light Rain
11:55 AM 59.9 °F 55.4 °F 85% 29.89 in 10.0 mi Calm Calm - N/A   Overcast
12:15 PM 59.9 °F 55.6 °F 86% 29.88 in 10.0 mi Calm Calm - N/A   Overcast
12:35 PM 61.9 °F 55.4 °F 79% 29.87 in 10.0 mi Calm Calm - N/A   Overcast
12:55 PM 62.2 °F 56.7 °F 82% 29.86 in 10.0 mi Calm Calm - N/A   Overcast
1:15 PM 64.6 °F 55.2 °F 72% 29.86 in 10.0 mi Calm Calm - N/A   Mostly Cloudy
1:35 PM 64.4 °F 54.9 °F 71% 29.86 in 10.0 mi Calm Calm - N/A   Overcast
2:15 PM 64.9 °F 55.6 °F 72% 29.84 in 10.0 mi Calm Calm - N/A   Overcast
2:35 PM 65.3 °F 55.0 °F 69% 29.84 in 10.0 mi Calm Calm - N/A   Overcast
2:55 PM 65.8 °F 54.7 °F 67% 29.84 in 10.0 mi Calm Calm - N/A   Overcast
3:15 PM 66.2 °F 55.8 °F 69% 29.83 in 10.0 mi Calm Calm - N/A   Overcast
3:35 PM 66.7 °F 55.4 °F 67% 29.83 in 10.0 mi Calm Calm - N/A   Overcast
3:55 PM 66.7 °F 55.2 °F 66% 29.82 in 10.0 mi Calm Calm - N/A   Overcast
4:15 PM 67.1 °F 54.7 °F 64% 29.82 in 10.0 mi South 4.6 mph - N/A   Overcast
4:35 PM 67.6 °F 54.9 °F 64% 29.81 in 10.0 mi West 6.9 mph - N/A   Light Drizzle
4:55 PM 67.1 °F 54.9 °F 65% 29.82 in 10.0 mi West 9.2 mph - N/A   Overcast
5:15 PM 65.7 °F 54.5 °F 67% 29.83 in 10.0 mi West 15.0 mph 24.2 mph N/A   Overcast
5:35 PM 63.5 °F 56.5 °F 78% 29.82 in 7.0 mi West 9.2 mph 18.4 mph N/A Rain Light Rain
5:55 PM 63.0 °F 57.2 °F 81% 29.82 in 10.0 mi West 5.8 mph - N/A   Overcast
6:15 PM 63.5 °F 57.2 °F 80% 29.82 in 10.0 mi Calm Calm - N/A   Overcast
6:35 PM 63.5 °F 57.2 °F 80% 29.83 in 10.0 mi Calm Calm - N/A   Overcast
6:55 PM 63.5 °F 55.6 °F 75% 29.83 in 10.0 mi West 3.5 mph - N/A   Overcast
7:15 PM 63.5 °F 55.4 °F 75% 29.84 in 10.0 mi WNW 5.8 mph - N/A   Drizzle
7:35 PM 62.1 °F 56.3 °F 81% 29.85 in 5.0 mi WNW 6.9 mph - N/A   Drizzle
7:55 PM 61.7 °F 56.3 °F 82% 29.85 in 7.0 mi Calm Calm - N/A   Drizzle
8:15 PM 61.2 °F 57.2 °F 87% 29.84 in 10.0 mi Calm Calm - N/A   Light Drizzle
8:35 PM 61.0 °F 56.5 °F 85% 29.84 in 10.0 mi Calm Calm - N/A   Mostly Cloudy
8:55 PM 60.4 °F 56.3 °F 86% 29.85 in 10.0 mi NE 3.5 mph - N/A   Overcast
9:15 PM 60.3 °F 56.3 °F 87% 29.86 in 10.0 mi North 5.8 mph - N/A   Overcast
9:35 PM 61.7 °F 55.4 °F 80% 29.87 in 7.0 mi Calm Calm - N/A Rain Rain
9:55 PM 60.8 °F 55.9 °F 84% 29.86 in 10.0 mi Calm Calm - N/A Rain Rain
10:15 PM 61.0 °F 55.6 °F 82% 29.86 in 10.0 mi WNW 3.5 mph - N/A Rain Rain
10:55 PM 59.4 °F 55.9 °F 88% 29.85 in 10.0 mi Calm Calm - N/A   Overcast
11:15 PM 59.9 °F 55.9 °F 87% 29.86 in 10.0 mi Calm Calm - N/A   Overcast
11:35 PM 60.1 °F 55.9 °F 86% 29.85 in 10.0 mi Calm Calm - N/A   Overcast
11:55 PM 59.0 °F 55.4 °F 88% 29.85 in 10.0 mi Calm Calm - N/A   Overcast